This is the latest recevied weather packets stored in our database for station/object K7FRY. If no packets are shown the sender has not sent any weather packets the latest 10 day(s).
| Time | Temp. | Humidity | Pressure | Rain* | Wind** | Luminosity | Snow |
|---|---|---|---|---|---|---|---|
| 1777929554 | 26.67° C | 24% | 1014.1 hPa | 0 mm | - | 206 W/m² | - |
| 1777929250 | 26.67° C | 25% | 1014.1 hPa | 0 mm | - | 230 W/m² | - |
| 1777928947 | 26.11° C | 25% | 1014.4 hPa | 0 mm | - | 209 W/m² | - |
| 1777928644 | 26.11° C | 25% | 1014.4 hPa | 0 mm | - | 188 W/m² | - |
| 1777928341 | 26.11° C | 25% | 1014.1 hPa | 0 mm | - | 126 W/m² | - |
| 1777928039 | 26.11° C | 24% | 1014.2 hPa | 0 mm | - | 108 W/m² | - |
| 1777927737 | 26.11° C | 24% | 1014.1 hPa | 0 mm | - | 107 W/m² | - |
| 1777927435 | 26.67° C | 23% | 1013.8 hPa | 0 mm | - | 141 W/m² | - |
| 1777927134 | 26.11° C | 23% | 1013.9 hPa | 0 mm | - | 213 W/m² | - |
| 1777926830 | 26.67° C | 23% | 1014 hPa | 0 mm | - | 231 W/m² | - |
| 1777926526 | 26.67° C | 24% | 1014.1 hPa | 0 mm | - | 273 W/m² | - |
| 1777926223 | 26.67° C | 23% | 1014.4 hPa | 0 mm | - | 278 W/m² | - |
| 1777925920 | 26.67° C | 25% | 1014.4 hPa | 0 mm | - | 314 W/m² | - |
| 1777925618 | 26.11° C | 25% | 1014.5 hPa | 0 mm | - | 310 W/m² | - |
| 1777925315 | 26.67° C | 23% | 1014.4 hPa | 0 mm | - | 269 W/m² | - |
| 1777925012 | 26.67° C | 24% | 1014.2 hPa | 0 mm | - | 235 W/m² | - |
| 1777924708 | 26.67° C | 24% | 1014 hPa | 0 mm | - | 216 W/m² | - |
| 1777924403 | 26.67° C | 23% | 1013.9 hPa | 0 mm | - | 266 W/m² | - |
| 1777924101 | 26.67° C | 24% | 1014 hPa | 0 mm | - | 294 W/m² | - |
| 1777923797 | 26.67° C | 24% | 1013.6 hPa | 0 mm | - | 317 W/m² | - |
| 1777923493 | 26.67° C | 24% | 1013.4 hPa | 0 mm | - | 268 W/m² | - |
| 1777923190 | 26.67° C | 25% | 1013.9 hPa | 0 mm | - | 258 W/m² | - |
| 1777922889 | 26.67° C | 24% | 1013.9 hPa | 0 mm | - | 270 W/m² | - |
| 1777922586 | 26.11° C | 25% | 1014 hPa | 0 mm | - | 269 W/m² | - |
| 1777922285 | 26.67° C | 25% | 1014 hPa | 0 mm | - | 275 W/m² | - |
* Rain latest hour (hover to see other rain measurements)
** Current wind speed in m/s (hover to see current wind gust speed)